Résultats de la compétition "Championnat ligue longue distance" du 17-05-2009 organisée par le club 3801
     
  Télécharger le fichier CSV.  
     
     

 Circuit "Bbis"

Licence Nom Prénom Temps CN
précédent
Score sur
la course
Différence
2321DENAIXMichel0:55:3064746065-409
11687GROTEAndreas0:58:1157935785-8
5676BALLIOTYvan0:59:4756775630-47
3563DUSIGNEPatrick1:00:0457245604-120
10089ROCHERobert1:03:3748295291+462
816GARDEJ-Claude1:04:33N/A5214N/A
11742MAGLIONEEric1:06:0853235090-233
276FLEURENTDominique1:07:2647064991+285
8106LELOUPMarine1:07:3762694978-1291
484MERMINEric1:08:4850154892-123
9351CALANDRYChristophe1:09:4354284828-600
15424GRILLETSerge1:12:0842484666+418
14535MOLLARETBruno1:13:48N/A4561N/A
9460MONTEMONTPatrice1:15:5952534430-823
3818BASSETOlivier1:17:4953974325-1072
7877VANDEWEEGHEVincent1:20:0943394199-140
11419RINGOTFrederic1:20:4543404168-172
8422VUITTONChristophe1:21:1758464141-1705
8773GRATIENJacques1:21:2650254133-892
2683MOUILLONLaurent1:22:2732564082+826
9462BOUCHETJ-Michel1:23:4331994021+822
13336DEFIXDominique1:27:13N/A3859N/A
18078RADISSONBruno1:29:5333663745+379
6040LACOSTEBruno1:35:1435133534+21
16174BREDOUXBruno1:36:0935423501-41
16798BLANC-TRANCHANTPierre1:37:16N/A3460N/A
17711MOTHEPierre1:48:1334323110-322
14498BASTIENXavier1:49:14N/A3081N/A
18048BOULORDEric2:03:1221232732+609
19530GROSJEANDenis2:10:11N/A2585N/A
5770CAPUTOJosephN/AN/A0N/A

  Indice de confiance du circuit (moyenne des différences entre CN et score sur la course des 3 à 10 premiers) : 246






 Retour